Weather Roundup
Issued by NWS

Home | Current Version | Previous Version | Graphics & Text | Print | Product List | Glossary Off
Versions: 1 2 3 4 5 6 7 8 9 10 11 12 13 14 15 16 17 18 19 20 21 22 23 24 25 26 27 28 29 30 31 32 33 34 35 36 37 38 39 40 41 42 43 44 45 46 47 48 49 50

692
NZUS93 KARX 242310
HRRWXR

CURRENT HOURLY OBSERVATIONS ACROSS
MUCH OF THE UPPER MISSISSIPPI VALLEY
NATIONAL WEATHER SERVICE LA CROSSE WI
600 PM CDT MON APR 24 2017


...SOUTHEAST MINNESOTA...


CITY           SKY/WX    TMP DP  RH WIND       PRES   REMARKS
ROCHESTER      CLOUDY    66  31  27 S17       29.63F
ROCHESTER/MAYO MOCLDY    68  31  25 SE9G22    29.62F
WINONA         CLOUDY    70  32  24 S7        29.66R
AUSTIN         CLOUDY    66  27  22 S9G16     29.60F
ALBERT LEA     CLOUDY    66  25  20 S12       29.59F
DODGE CENTER   CLOUDY    64  30  27 S21       29.61F
PRESTON        CLOUDY    66  28  23 S13       29.66R
OWATONNA       CLOUDY    66  28  24 S13       29.59F
FARIBAULT      CLOUDY    68  30  24 S15G22    29.60S
$$

...ELSEWHERE IN MINNESOTA...


CITY           SKY/WX    TMP DP  RH WIND       PRES   REMARKS
MINNEAPOLIS    CLOUDY    68  31  25 SE9       29.58F
INTNL FALLS    LGT RAIN  37  35  92 E9        29.67S FOG     WCI  30
DULUTH         CLOUDY    37  32  82 E21G33    29.66S WCI  26
RED WING       CLOUDY    70  28  21 S10       29.61F
REDWOOD FALLS  CLOUDY    66  39  37 S10       29.51F
MANKATO        CLOUDY    68  29  23 S14G23    29.56F
WORTHINGTON    CLOUDY    66  38  35 S20       29.53S
FAIRMONT       CLOUDY    68  33  27 S16       29.55F
$$

...SOUTHWEST WISCONSIN...


CITY           SKY/WX    TMP DP  RH WIND       PRES   REMARKS
LA CROSSE      MOSUNNY   71  30  21 S16G22    29.65F
PRAIRIE DU CHI CLOUDY    72  22  15 SE13G21   29.67F
BOSCOBEL       PTSUNNY   74  24  15 VRB6G20   29.69F
LONE ROCK      CLOUDY    71  30  21 SE14G23   29.71F
PLATTEVILLE    CLOUDY    72  26  18 SE18      29.71F
FORT MC COY    CLOUDY    70  29  21 SE7       29.70F
CAMP DOUGLAS   CLOUDY    70  30  23 SE12G21   29.71S
MAUSTON-NEW LI MOCLDY    70  31  23 S10G16    29.71S
VIROQUA        FAIR      67  29  24 S14       29.70F
WIS DELLS      MOSUNNY   69  27  20 S12G17    29.73F
$$

...ELSEWHERE IN WISCONSIN...


CITY           SKY/WX    TMP DP  RH WIND       PRES   REMARKS
MILWAUKEE      PTSUNNY   63  33  32 SE12      29.83F
MADISON        CLOUDY    70  27  20 SE16      29.74F
GREEN BAY      CLOUDY    64  35  34 SE22      29.81F
EAU CLAIRE     CLOUDY    68  30  24 S9        29.66F
BLACK RVR FLS  FAIR      71  21  14 S10       29.68F
MEDFORD        PTSUNNY   62  35  36 SE9       29.71F
WAUSAU         CLOUDY    66  33  29 SE12      29.72F
WIS RAPIDS     NOT AVBL
MARSHFIELD     MOSUNNY   67  29  24 S13       29.71S
RICE LAKE      CLOUDY    66  30  26 SE10G23   29.66F
$$

...NORTHEAST IOWA...


CITY           SKY/WX    TMP DP  RH WIND       PRES   REMARKS
WATERLOO       CLOUDY    72  23  16 S20G26    29.62F
DUBUQUE        SUNNY     72  23  16 S24       29.70F
DECORAH        CLOUDY    70  27  19 S14G24    29.64F
MASON CITY     CLOUDY    66  30  26 S14       29.60F
CHARLES CITY   CLOUDY    70  25  18 SE14G20   29.62F
OELWEIN        CLOUDY    72  27  18 S22G28    29.65F
$$

...ELSEWHERE IN IOWA...


CITY           SKY/WX    TMP DP  RH WIND       PRES   REMARKS
DES MOINES     CLOUDY    74  29  19 S17G23    29.60S
IOWA CITY      SUNNY     75  28  17 SE17G29   29.68F
FORT DODGE     MOSUNNY   72  30  21 S18G36    29.57F
MARSHALLTOWN   CLOUDY    71  27  19 S18       29.61F
CEDAR RAPIDS   SUNNY     73  28  18 SE16G25   29.66F
$$

...NORTHERN ILLINOIS...


CITY           SKY/WX    TMP DP  RH WIND       PRES   REMARKS
CHICAGO-OHARE  CLOUDY    70  29  21 E10       29.81F
CHICAGO-MIDWAY CLOUDY    68  31  25 NE10      29.81F
MOLINE         SUNNY     75  27  17 SE21G32   29.68F
ROCKFORD       PTSUNNY   73  32  22 SE12      29.78F
PEORIA         SUNNY     75  23  14 SE10      29.74F
$$

NOTE: "FAIR" INDICATES FEW OR NO CLOUDS BELOW 12,000 FEET WITH NO
SIGNIFICANT WEATHER AND/OR OBSTRUCTIONS TO VISIBILITY. WIND
SPEEDS ARE IN MILES-PER-HOUR.




USA.gov is the U.S. government's official web portal to all federal, state and local government web resources and services.